User: anonymous   Login
Location: Aytr�
(46.1357°N, 1.1145°W)
Time: 18:23:54
(UTC+00:00)
Language:

PSLV R/B - Orbit

View from above orbital plane
View from above orbital plane
View from above satellite
View from above satellite

Ground track
Ground track

The orbit data is extracted from the following two-line orbital elements,

1 36800U 10035F   21135.84571469  .00000060  00000-0  11306-4 0  9993
2 36800  98.1609 332.7715 0020882 304.1610  55.7629 14.94929677590281
Epoch (UTC): 15 May 2021 20:17:49
Eccentricity: 0.0020882
inclination: 98.1609°
perigee height: 568 km
apogee height: 597 km
right ascension of ascending node: 332.7715°
argument of perigee: 304.1610°
revolutions per day: 14.94929677
mean anomaly at epoch: 55.7629°
orbit number at epoch: 59028

The dashed part of the orbit path shows where the satellite is in the earth's shadow,  

DLR